TimeCST,TemperatureF,Dew PointF,Humidity,Sea Level PressureIn,VisibilityMPH,Wind Direction,Wind SpeedMPH,Gust SpeedMPH,PrecipitationIn,Events,Conditions,WindDirDegrees,DateUTC
12:56 AM,26.1,21.0,81,30.20,10.0,WNW,8.1,-,N/A,,Clear,300,2013-01-17 06:56:00
1:56 AM,26.1,21.0,81,30.19,10.0,NW,6.9,-,N/A,,Clear,310,2013-01-17 07:56:00
2:56 AM,28.0,21.0,75,30.19,10.0,NW,5.8,-,N/A,,Clear,320,2013-01-17 08:56:00
3:56 AM,29.1,22.1,75,30.19,10.0,WNW,4.6,-,N/A,,Overcast,300,2013-01-17 09:56:00
4:56 AM,29.1,26.1,88,30.21,10.0,South,4.6,-,N/A,,Overcast,170,2013-01-17 10:56:00
6:56 AM,28.0,22.1,78,30.25,10.0,WNW,5.8,-,N/A,,Clear,290,2013-01-17 12:56:00
7:56 AM,29.1,24.1,81,30.28,10.0,Variable,4.6,-,N/A,,Clear,0,2013-01-17 13:56:00
8:56 AM,32.9,27.1,79,30.31,10.0,Calm,Calm,-,N/A,,Overcast,0,2013-01-17 14:56:00
9:56 AM,36.9,27.1,68,30.33,10.0,North,-9999.0,-,N/A,,Overcast,0,2013-01-17 15:56:00
10:56 AM,39.9,29.1,65,30.32,10.0,NNW,11.5,-,N/A,,Overcast,330,2013-01-17 16:56:00
11:56 AM,41.9,31.1,66,30.32,10.0,NW,10.4,-,N/A,,Overcast,320,2013-01-17 17:56:00
12:56 PM,46.9,32.0,56,30.31,10.0,NW,9.2,-,N/A,,Clear,320,2013-01-17 18:56:00
1:56 PM,50.9,34.9,54,30.31,10.0,NNW,11.5,21.9,N/A,,Clear,340,2013-01-17 19:56:00
2:56 PM,50.9,36.0,57,30.32,10.0,NNW,19.6,-,N/A,,Clear,330,2013-01-17 20:56:00
3:56 PM,47.8,34.9,61,30.36,10.0,NNW,11.5,26.5,N/A,,Clear,340,2013-01-17 21:56:00
4:56 PM,41.9,32.9,70,30.40,10.0,NW,9.2,24.2,N/A,,Clear,320,2013-01-17 22:56:00
5:56 PM,37.4,28.4,70,30.43,10.0,NNW,10.4,-,N/A,,Clear,340,2013-01-17 23:56:00
6:56 PM,34.9,27.1,73,30.47,10.0,North,6.9,-,N/A,,Clear,350,2013-01-18 00:56:00
7:56 PM,36.0,27.1,70,30.49,10.0,Calm,Calm,-,N/A,,Clear,0,2013-01-18 01:56:00
8:56 PM,32.9,26.1,76,30.51,10.0,West,4.6,-,N/A,,Clear,270,2013-01-18 02:56:00
9:56 PM,32.0,26.1,79,30.52,10.0,Calm,Calm,-,N/A,,Clear,0,2013-01-18 03:56:00
10:56 PM,30.0,26.1,85,30.52,10.0,West,4.6,-,N/A,,Clear,280,2013-01-18 04:56:00
11:56 PM,31.1,25.2,79,30.53,10.0,NW,6.9,-,N/A,,Clear,310,2013-01-18 05:56:00